When you browse on this site, cookies collect data to enhance your experience and personalize the content and advertising you see.
Visit our Privacy Policy to learn more. By continuing to use the site, you agree to this use of cookies and data.
  • In Österreich
  • Länderverzeichnis
  • Für 7 Tage
  • Wassertemperatur
  • Wetterkarte
  • News
  • Widgets
  • user-avatar
    Anmelden

    Stündliche Wetter Zasuv

    Heute, 17 August, Samstag

    Zeit Temperatur Niederschläge Wind Luftdruck Luftfeuchtigkeit
    00:00 +13°C° 0 mm 1 m/S 739 mmHg 84%
    01:00 +13°C° 0 mm 1 m/S 739 mmHg 85%
    02:00 +13°C° 0 mm 1 m/S 739 mmHg 88%
    03:00 +12°C° 0 mm 1 m/S 739 mmHg 89%
    04:00 +12°C° 0 mm 1 m/S 739 mmHg 90%
    05:00 +12°C° 0 mm 1 m/S 739 mmHg 90%
    06:00 +14°C° 0 mm 2 m/S 740 mmHg 86%
    07:00 +15°C° 0 mm 2 m/S 740 mmHg 81%
    08:00 +17°C° 0 mm 2 m/S 740 mmHg 76%
    09:00 +18°C° 0 mm 2 m/S 740 mmHg 71%
    10:00 +20°C° 0 mm 2 m/S 740 mmHg 66%
    11:00 +21°C° 0 mm 2 m/S 740 mmHg 61%
    12:00 +22°C° 0.1 mm 3 m/S 740 mmHg 59%
    13:00 +22°C° 0.1 mm 3 m/S 740 mmHg 57%
    14:00 +24°C° 0.1 mm 3 m/S 740 mmHg 55%
    15:00 +24°C° 0.1 mm 3 m/S 739 mmHg 57%
    16:00 +22°C° 0.1 mm 3 m/S 739 mmHg 58%
    17:00 +22°C° 0.1 mm 3 m/S 739 mmHg 59%
    18:00 +21°C° 0 mm 3 m/S 739 mmHg 65%
    19:00 +19°C° 0 mm 2 m/S 739 mmHg 70%
    20:00 +17°C° 0 mm 2 m/S 739 mmHg 75%
    21:00 +16°C° 0 mm 1 m/S 739 mmHg 76%
    22:00 +16°C° 0 mm 1 m/S 739 mmHg 77%
    23:00 +15°C° 0 mm 1 m/S 739 mmHg 78%

    Morgen, 18 August, Sonntag

    Zeit Temperatur Niederschläge Wind Luftdruck Luftfeuchtigkeit
    00:00 +15°C° 0 mm 1 m/S 739 mmHg 78%
    01:00 +15°C° 0 mm 1 m/S 739 mmHg 78%
    02:00 +15°C° 0 mm 1 m/S 739 mmHg 78%
    03:00 +14°C° 0 mm 1 m/S 739 mmHg 80%
    04:00 +14°C° 0 mm 1 m/S 739 mmHg 81%
    05:00 +14°C° 0 mm 1 m/S 739 mmHg 82%
    06:00 +15°C° 0 mm 1 m/S 739 mmHg 78%
    07:00 +18°C° 0 mm 1 m/S 739 mmHg 73%
    08:00 +20°C° 0 mm 1 m/S 739 mmHg 68%
    09:00 +21°C° 0 mm 1 m/S 740 mmHg 63%
    10:00 +23°C° 0 mm 2 m/S 740 mmHg 59%
    11:00 +24°C° 0 mm 2 m/S 740 mmHg 54%
    12:00 +25°C° 0 mm 2 m/S 740 mmHg 53%
    13:00 +25°C° 0 mm 2 m/S 739 mmHg 52%
    14:00 +26°C° 0 mm 2 m/S 739 mmHg 50%
    15:00 +26°C° 0 mm 2 m/S 739 mmHg 52%
    16:00 +26°C° 0 mm 2 m/S 739 mmHg 53%
    17:00 +26°C° 0 mm 2 m/S 739 mmHg 54%
    18:00 +25°C° 0 mm 2 m/S 739 mmHg 60%
    19:00 +23°C° 0 mm 2 m/S 739 mmHg 65%
    20:00 +20°C° 0 mm 2 m/S 739 mmHg 70%
    21:00 +19°C° 0 mm 2 m/S 740 mmHg 72%
    22:00 +19°C° 0 mm 2 m/S 740 mmHg 74%
    23:00 +18°C° 0 mm 3 m/S 740 mmHg 76%

    übermorgen, 19 August, Montag

    Zeit Temperatur Niederschläge Wind Luftdruck Luftfeuchtigkeit
    00:00 +18°C° 0 mm 3 m/S 740 mmHg 77%
    01:00 +18°C° 0 mm 2 m/S 740 mmHg 78%
    02:00 +17°C° 0 mm 2 m/S 740 mmHg 79%
    03:00 +17°C° 0 mm 2 m/S 740 mmHg 79%
    04:00 +17°C° 0 mm 2 m/S 740 mmHg 78%
    05:00 +17°C° 0 mm 2 m/S 740 mmHg 78%
    06:00 +18°C° 0 mm 3 m/S 740 mmHg 75%
    07:00 +20°C° 0 mm 3 m/S 741 mmHg 72%
    08:00 +21°C° 0 mm 3 m/S 741 mmHg 69%
    09:00 +24°C° 0 mm 2 m/S 741 mmHg 64%
    10:00 +26°C° 0 mm 2 m/S 741 mmHg 59%
    11:00 +28°C° 0 mm 2 m/S 741 mmHg 54%
    12:00 +28°C° 0 mm 2 m/S 742 mmHg 52%
    13:00 +29°C° 0 mm 2 m/S 742 mmHg 51%
    14:00 +30°C° 0 mm 2 m/S 742 mmHg 49%
    15:00 +30°C° 0 mm 2 m/S 742 mmHg 51%
    16:00 +30°C° 0 mm 2 m/S 742 mmHg 52%
    17:00 +30°C° 0 mm 2 m/S 742 mmHg 54%
    18:00 +28°C° 0 mm 2 m/S 742 mmHg 59%
    19:00 +26°C° 0 mm 2 m/S 741 mmHg 65%
    20:00 +24°C° 0 mm 3 m/S 741 mmHg 71%
    21:00 +22°C° 0 mm 3 m/S 741 mmHg 70%
    22:00 +21°C° 0 mm 3 m/S 742 mmHg 70%
    23:00 +21°C° 0 mm 3 m/S 742 mmHg 69%

    20 August, Dienstag

    Zeit Temperatur Niederschläge Wind Luftdruck Luftfeuchtigkeit
    00:00 +20°C° 0 mm 3 m/S 742 mmHg 69%
    01:00 +20°C° 0 mm 3 m/S 742 mmHg 69%
    02:00 +19°C° 0 mm 3 m/S 742 mmHg 69%
    03:00 +19°C° 0 mm 2 m/S 742 mmHg 70%
    04:00 +18°C° 0 mm 2 m/S 742 mmHg 70%
    05:00 +18°C° 0 mm 2 m/S 742 mmHg 70%
    06:00 +19°C° 0 mm 2 m/S 742 mmHg 68%
    07:00 +21°C° 0 mm 2 m/S 743 mmHg 66%
    08:00 +23°C° 0 mm 2 m/S 743 mmHg 64%
    09:00 +25°C° 0 mm 2 m/S 743 mmHg 60%
    10:00 +26°C° 0 mm 2 m/S 743 mmHg 56%
    11:00 +28°C° 0 mm 2 m/S 744 mmHg 52%
    12:00 +29°C° 0 mm 2 m/S 743 mmHg 50%
    13:00 +29°C° 0 mm 2 m/S 743 mmHg 48%
    14:00 +30°C° 0 mm 2 m/S 743 mmHg 46%
    15:00 +30°C° 0 mm 2 m/S 743 mmHg 47%
    16:00 +30°C° 0 mm 2 m/S 743 mmHg 48%
    17:00 +30°C° 0 mm 1 m/S 743 mmHg 49%
    18:00 +28°C° 0 mm 2 m/S 743 mmHg 54%
    19:00 +26°C° 0 mm 2 m/S 742 mmHg 59%
    20:00 +24°C° 0 mm 2 m/S 742 mmHg 63%
    21:00 +23°C° 0 mm 2 m/S 742 mmHg 64%
    22:00 +23°C° 0 mm 2 m/S 742 mmHg 65%
    23:00 +21°C° 0 mm 3 m/S 742 mmHg 65%

    21 August, Mittwoch

    Zeit Temperatur Niederschläge Wind Luftdruck Luftfeuchtigkeit
    00:00 +21°C° 0 mm 3 m/S 742 mmHg 65%
    01:00 +20°C° 0 mm 3 m/S 742 mmHg 66%
    02:00 +20°C° 0 mm 4 m/S 742 mmHg 66%
    03:00 +20°C° 0 mm 4 m/S 742 mmHg 65%
    04:00 +19°C° 0 mm 4 m/S 741 mmHg 64%
    05:00 +19°C° 0 mm 4 m/S 741 mmHg 63%
    06:00 +20°C° 0 mm 4 m/S 741 mmHg 62%
    07:00 +21°C° 0 mm 5 m/S 741 mmHg 62%
    08:00 +22°C° 0 mm 5 m/S 741 mmHg 62%
    09:00 +25°C° 0 mm 5 m/S 741 mmHg 58%
    10:00 +27°C° 0 mm 5 m/S 741 mmHg 55%
    11:00 +29°C° 0 mm 4 m/S 742 mmHg 52%
    12:00 +29°C° 0 mm 5 m/S 742 mmHg 56%
    13:00 +28°C° 0 mm 6 m/S 742 mmHg 59%
    14:00 +28°C° 0 mm 7 m/S 742 mmHg 63%
    15:00 +26°C° 0 mm 7 m/S 742 mmHg 66%
    16:00 +24°C° 0 mm 7 m/S 742 mmHg 69%
    17:00 +22°C° 0 mm 7 m/S 743 mmHg 72%
    18:00 +20°C° 0 mm 6 m/S 743 mmHg 74%
    19:00 +19°C° 0 mm 6 m/S 744 mmHg 76%
    20:00 +16°C° 0 mm 5 m/S 744 mmHg 78%
    21:00 +15°C° 0 mm 5 m/S 745 mmHg 80%
    22:00 +15°C° 0 mm 4 m/S 745 mmHg 83%
    23:00 +14°C° 0 mm 4 m/S 746 mmHg 85%

    22 August, Donnerstag

    Zeit Temperatur Niederschläge Wind Luftdruck Luftfeuchtigkeit
    00:00 +13°C° 0 mm 4 m/S 746 mmHg 87%
    01:00 +12°C° 0 mm 3 m/S 746 mmHg 90%
    02:00 +12°C° 0 mm 3 m/S 746 mmHg 93%
    03:00 +11°C° 0 mm 3 m/S 746 mmHg 93%
    04:00 +11°C° 0 mm 3 m/S 746 mmHg 93%
    05:00 +10°C° 0 mm 3 m/S 746 mmHg 93%
    06:00 +12°C° 0 mm 3 m/S 747 mmHg 88%
    07:00 +13°C° 0 mm 4 m/S 747 mmHg 83%
    08:00 +14°C° 0 mm 4 m/S 747 mmHg 77%
    09:00 +17°C° 0 mm 4 m/S 748 mmHg 72%
    10:00 +18°C° 0 mm 4 m/S 748 mmHg 67%
    11:00 +20°C° 0 mm 4 m/S 748 mmHg 62%
    12:00 +21°C° 0 mm 4 m/S 748 mmHg 59%
    13:00 +22°C° 0 mm 4 m/S 747 mmHg 56%
    14:00 +22°C° 0 mm 4 m/S 747 mmHg 53%
    15:00 +22°C° 0 mm 4 m/S 747 mmHg 53%
    16:00 +22°C° 0 mm 4 m/S 747 mmHg 54%
    17:00 +22°C° 0 mm 4 m/S 747 mmHg 54%
    18:00 +20°C° 0 mm 3 m/S 747 mmHg 61%
    19:00 +19°C° 0 mm 3 m/S 747 mmHg 68%
    20:00 +17°C° 0 mm 2 m/S 747 mmHg 75%
    21:00 +16°C° 0 mm 2 m/S 747 mmHg 77%
    22:00 +15°C° 0 mm 2 m/S 747 mmHg 78%
    23:00 +15°C° 0 mm 2 m/S 747 mmHg 80%
    Mehr zeigen